ON7DE Weather Reports


time (UTC)temp
C
wind
direction
speed
KPH
gust
KPH
rain 1hr
cm
rain 24hr
cm
rain mn
cm
humidity
%
barometer
mb
20260507140006 15 33 4.8 4.8 0.00 0.00 0.00 57 1015.8
20260507135403 15 30 3.2 6.4 0.00 0.00 0.00 56 1015.9
20260507134503 15 47 3.2 6.4 0.00 0.00 0.00 57 1016.0
20260507133603 15 53 4.8 6.4 0.00 0.00 0.00 58 1016.0
20260507132705 15 22 3.2 4.8 0.00 0.00 0.00 57 1015.9
20260507131805 15 24 3.2 4.8 0.00 0.00 0.00 58 1016.0
20260507130903 15 38 4.8 6.4 0.00 0.00 0.00 60 1015.8
20260507130216 15 24 6.4 8.0 0.00 0.00 0.00 58 1016.0
20260507125403 15 352 3.2 6.4 0.00 0.00 0.00 58 1016.1
20260507124504 15 347 4.8 6.4 0.00 0.00 0.00 59 1015.9
20260507123604 15 272 3.2 4.8 0.00 0.00 0.00 62 1015.9
20260507122706 15 248 4.8 8.0 0.00 0.00 0.00 61 1015.7
20260507121805 15 233 4.8 6.4 0.00 0.00 0.00 62 1015.8
20260507120905 15 249 4.8 6.4 0.00 0.00 0.00 62 1015.8
20260507120217 15 254 4.8 6.4 0.00 0.00 0.00 62 1015.7
20260507115405 15 256 4.8 6.4 0.00 0.00 0.00 59 1015.7
20260507114716 15 268 3.2 4.8 0.00 0.00 0.00 62 1015.6
20260507113608 14 244 4.8 8.0 0.00 0.00 0.00 64 1015.9
20260507112703 15 270 3.2 4.8 0.00 0.00 0.00 61 1015.7
20260507111803 15 58 3.2 4.8 0.00 0.00 0.00 59 1015.8
20260507111115 15 87 3.2 4.8 0.00 0.00 0.00 55 1015.8
20260507110004 15 47 3.2 6.4 0.00 0.00 0.00 58 1015.8
20260507105405 15 82 4.8 8.0 0.00 0.00 0.00 59 1015.8
20260507104504 15 65 4.8 6.4 0.00 0.00 0.00 60 1015.9
20260507103604 16 92 4.8 6.4 0.00 0.00 0.00 59 1015.8
20260507102705 16 101 6.4 9.7 0.00 0.00 0.00 60 1015.9
20260507101803 16 70 4.8 6.4 0.00 0.00 0.00 62 1016.2
20260507100903 15 125 3.2 4.8 0.00 0.00 0.00 62 1016.0
20260507100004 15 82 4.8 9.7 0.00 0.00 0.00 64 1015.9
20260507095408 15 88 4.8 9.7 0.00 0.00 0.00 65 1016.0
20260507094503 15 64 4.8 8.0 0.00 0.00 0.00 68 1015.8
20260507093604 14 68 6.4 8.0 0.00 0.00 0.00 66 1015.8
20260507092704 14 57 6.4 8.0 0.00 0.00 0.00 67 1015.9
20260507092016 14 71 6.4 6.4 0.00 0.00 0.00 68 1015.8
20260507090903 14 75 3.2 6.4 0.00 0.00 0.00 71 1015.9
20260507090005 13 68 4.8 6.4 0.00 0.00 0.00 69 1016.0
20260507085405 13 73 6.4 6.4 0.00 0.00 0.00 70 1015.7
20260507084503 13 63 6.4 9.7 0.00 0.00 0.00 70 1015.6
20260507083608 12 56 6.4 9.7 0.00 0.00 0.00 71 1015.7
20260507082704 12 78 3.2 4.8 0.00 0.00 0.00 75 1015.5
20260507081803 12 62 1.6 4.8 0.00 0.00 0.00 76 1015.5
20260507081117 12 70 1.6 3.2 0.00 0.00 0.00 79 1015.7
20260507080004 11 33 1.6 4.8 0.00 0.00 0.00 81 1015.6
20260507075405 11 63 3.2 4.8 0.00 0.00 0.00 80 1015.5
20260507074505 12 6 1.6 3.2 0.00 0.00 0.00 81 1015.6
20260507073603 11 39 3.2 6.4 0.00 0.00 0.00 82 1015.5
20260507072703 11 28 1.6 3.2 0.00 0.00 0.00 83 1015.4
20260507071804 11 36 3.2 4.8 0.00 0.00 0.00 83 1015.3
20260507070905 11 50 3.2 4.8 0.00 0.00 0.00 72 1015.4
20260507070009 11 55 1.6 4.8 0.00 0.03 0.00 83 1015.2
20260507065617 11 63 1.6 4.8 0.00 0.03 0.00 83 1015.2
20260507064504 10 50 1.6 3.2 0.00 0.03 0.00 83 1015.2
20260507063603 10 55 3.2 4.8 0.00 0.03 0.00 83 1015.1
20260507062705 10 61 3.2 4.8 0.00 0.03 0.00 83 1015.3
20260507061803 10 56 3.2 4.8 0.00 0.03 0.00 84 1015.1
20260507060903 10 45 3.2 3.2 0.00 0.03 0.00 85 1015.1
20260507060004 10 11 3.2 3.2 0.00 0.03 0.00 86 1014.9
20260507055403 10 8 3.2 6.4 0.00 0.03 0.00 86 1014.9
20260507054505 10 157 0.0 3.2 0.00 0.03 0.00 89 1014.6
20260507053603 10 0 0.0 0.0 0.00 0.03 0.00 91 1014.9
20260507052704 9 0 0.0 0.0 0.00 0.03 0.00 92 1014.7
20260507051803 9 0 0.0 0.0 0.00 0.03 0.00 92 1014.6
20260507050908 9 0 0.0 0.0 0.00 0.03 0.00 92 1014.5
20260507050004 9 0 0.0 0.0 0.00 0.03 0.00 92 1014.3
20260507045405 9 0 0.0 0.0 0.00 0.03 0.00 92 1014.5
20260507044504 9 0 0.0 0.0 0.00 0.03 0.00 92 1014.4
20260507043605 9 0 0.0 0.0 0.00 0.03 0.00 92 1014.2
20260507042705 9 0 0.0 0.0 0.00 0.03 0.00 91 1014.2
20260507041805 9 0 0.0 0.0 0.00 0.03 0.00 91 1014.1
20260507040906 9 0 0.0 0.0 0.00 0.03 0.00 91 1014.1
20260507040004 9 0 0.0 0.0 0.00 0.03 0.00 91 1013.9
20260507035403 9 0 0.0 0.0 0.00 0.03 0.00 91 1014.0
20260507034503 9 0 0.0 0.0 0.00 0.03 0.00 91 1013.8
20260507033818 9 0 0.0 0.0 0.00 0.03 0.00 91 1013.7
20260507032704 9 0 0.0 0.0 0.00 0.03 0.00 91 1013.7
20260507031804 9 0 0.0 0.0 0.00 0.03 0.00 91 1013.6
20260507030904 9 0 0.0 0.0 0.00 0.03 0.00 92 1013.7
20260507030213 9 0 0.0 0.0 0.00 0.03 0.00 91 1013.6
20260507025405 9 0 0.0 0.0 0.00 0.03 0.00 91 1013.6
20260507024716 9 0 0.0 0.0 0.00 0.03 0.00 91 1013.5
20260507023606 9 0 0.0 0.0 0.00 0.03 0.00 91 1013.5
20260507022703 9 0 0.0 0.0 0.00 0.03 0.00 91 1013.5
20260507022019 9 0 0.0 0.0 0.00 0.03 0.00 90 1013.3
20260507020905 9 0 0.0 0.0 0.00 0.03 0.00 89 1013.3
20260507020005 9 0 0.0 0.0 0.00 0.03 0.00 89 1013.2
20260507015405 9 0 0.0 0.0 0.00 0.03 0.00 89 1013.4
20260507014717 9 0 0.0 0.0 0.00 0.03 0.00 89 1013.1
20260507013608 9 0 0.0 0.0 0.00 0.03 0.00 89 1013.2
20260507012704 9 0 0.0 0.0 0.00 0.03 0.00 89 1013.1
20260507011805 9 0 0.0 0.0 0.00 0.03 0.00 88 1013.2
20260507010903 9 0 0.0 0.0 0.00 0.03 0.00 87 1013.0
20260507010005 9 0 0.0 0.0 0.00 0.03 0.00 87 1013.1
20260507005404 9 0 0.0 0.0 0.00 0.03 0.00 87 1012.9
20260507004505 9 0 0.0 0.0 0.00 0.03 0.00 86 1013.3
20260507003815 9 0 0.0 0.0 0.00 0.03 0.00 86 1013.1
20260507002918 10 0 0.0 0.0 0.00 0.03 0.00 86 1013.3
20260507001805 9 0 0.0 0.0 0.00 0.03 0.00 84 1012.9
20260507000904 9 0 0.0 0.0 0.00 0.03 0.00 83 1012.9
20260507000005 9 0 0.0 0.0 0.00 0.03 0.00 83 1013.1
20260506235403 9 0 0.0 0.0 0.00 0.03 0.00 83 1013.1
20260506234508 10 0 0.0 0.0 0.00 0.03 0.00 82 1013.2
20260506233603 10 0 0.0 0.0 0.00 0.03 0.00 80 1013.0
20260506232703 10 0 0.0 0.0 0.00 0.03 0.00 77 1012.7
20260506232016 10 0 0.0 0.0 0.00 0.03 0.00 76 1012.9
20260506230903 10 0 0.0 0.0 0.00 0.03 0.00 77 1012.7
20260506230004 10 0 0.0 0.0 0.00 0.03 0.00 77 1012.7
20260506225406 10 0 0.0 0.0 0.00 0.03 0.00 76 1012.8
20260506224504 10 0 0.0 0.0 0.00 0.03 0.00 75 1012.7
20260506223603 10 0 0.0 0.0 0.00 0.03 0.00 75 1012.5
20260506222705 10 0 0.0 0.0 0.00 0.03 0.00 75 1012.5
20260506221805 10 0 0.0 0.0 0.00 0.03 0.00 75 1012.5
20260506220905 10 0 0.0 0.0 0.00 0.03 0.00 75 1012.5
20260506220221 10 0 0.0 0.0 0.00 0.03 0.00 74 1012.4
20260506215408 10 67 0.0 1.6 0.00 0.03 0.03 74 1012.5
20260506214504 11 67 1.6 4.8 0.00 0.03 0.03 74 1012.4
20260506213603 11 60 3.2 4.8 0.00 0.03 0.03 73 1012.5
20260506212704 11 60 3.2 4.8 0.00 0.03 0.03 74 1012.5
20260506212017 11 60 4.8 4.8 0.00 0.03 0.03 74 1012.2
20260506211114 11 70 3.2 4.8 0.00 0.03 0.03 75 1012.2
20260506210005 11 75 4.8 6.4 0.00 0.03 0.03 75 1012.0
20260506205403 11 71 4.8 6.4 0.00 0.03 0.03 75 1012.2
20260506204505 11 68 3.2 6.4 0.00 0.03 0.03 74 1012.0
20260506203818 11 57 3.2 4.8 0.00 0.03 0.03 74 1012.0
20260506202706 11 62 4.8 6.4 0.00 0.03 0.03 74 1011.9
20260506201805 11 69 3.2 6.4 0.00 0.03 0.03 75 1011.8
20260506200905 11 54 6.4 8.0 0.00 0.03 0.03 74 1011.8
20260506200008 11 72 6.4 6.4 0.00 0.03 0.03 73 1011.8
20260506195404 11 72 6.4 11.3 0.00 0.03 0.03 73 1011.5
20260506194505 11 59 9.7 16.1 0.00 0.03 0.03 72 1011.7
20260506193603 11 63 9.7 16.1 0.00 0.03 0.03 72 1011.8
20260506192705 11 61 9.7 16.1 0.00 0.03 0.03 73 1011.6
20260506191805 11 69 9.7 16.1 0.00 0.03 0.03 73 1011.2
20260506190906 11 48 9.7 11.3 0.00 0.03 0.03 74 1011.3
20260506190005 11 51 8.0 8.0 0.00 0.03 0.03 74 1011.1
20260506185405 11 50 8.0 9.7 0.00 0.03 0.03 74 1010.9
20260506184722 11 46 8.0 12.9 0.00 0.03 0.03 75 1010.8
20260506183604 11 50 11.3 11.3 0.00 0.03 0.03 74 1010.7
20260506182705 11 50 9.7 11.3 0.00 0.03 0.03 74 1010.9
20260506181808 11 49 9.7 11.3 0.00 0.03 0.03 73 1010.6
20260506180903 12 57 9.7 11.3 0.00 0.03 0.03 71 1010.4
20260506180005 12 76 11.3 11.3 0.00 0.03 0.03 69 1010.3
20260506175405 12 64 9.7 11.3 0.00 0.03 0.03 66 1010.2
20260506174505 12 63 8.0 11.3 0.00 0.03 0.03 62 1010.1
20260506173603 13 51 8.0 11.3 0.00 0.03 0.03 62 1010.2
20260506172703 13 42 6.4 8.0 0.00 0.03 0.03 64 1009.8
20260506171803 13 56 8.0 11.3 0.00 0.03 0.03 66 1009.8
20260506170905 13 35 8.0 11.3 0.00 0.03 0.03 65 1009.5
20260506170010 13 63 8.0 11.3 0.00 0.03 0.03 64 1009.8
20260506165616 13 53 8.0 9.7 0.00 0.03 0.03 64 1009.6
20260506164718 13 43 9.7 12.9 0.00 0.03 0.03 66 1009.3
20260506163604 14 42 9.7 11.3 0.00 0.03 0.03 63 1009.3
20260506162705 15 36 8.0 11.3 0.00 0.03 0.03 62 1009.3
20260506161804 15 19 6.4 9.7 0.00 0.03 0.03 63 1009.1
20260506160903 14 25 8.0 11.3 0.00 0.03 0.03 63 1009.1
20260506160214 15 42 6.4 11.3 0.00 0.03 0.03 62 1009.2
20260506155616 14 40 8.0 9.7 0.00 0.03 0.03 61 1009.0
20260506154503 15 26 4.8 8.0 0.00 0.03 0.03 59 1009.4
20260506153603 15 3 4.8 8.0 0.00 0.03 0.03 60 1009.1
20260506152918 15 333 4.8 8.0 0.00 0.03 0.03 60 1009.4
20260506151804 14 28 8.0 9.7 0.00 0.03 0.03 59 1009.0
20260506150903 15 47 4.8 9.7 0.00 0.03 0.03 64 1009.2
20260506150225 15 96 6.4 8.0 0.00 0.03 0.03 67 1009.1
20260506145405 14 46 8.0 8.0 0.00 0.03 0.03 67 1009.3
20260506144505 14 31 8.0 9.7 0.00 0.03 0.03 66 1009.2
20260506143605 14 41 8.0 9.7 0.00 0.03 0.03 65 1009.2
20260506142704 15 24 6.4 8.0 0.00 0.03 0.03 64 1009.2
20260506141805 15 27 6.4 11.3 0.00 0.03 0.03 63 1009.0
20260506140905 15 35 9.7 11.3 0.00 0.03 0.03 60 1009.1